Wind_Speed
21 19 17 16 14 12 10 10 10 9 9 9 8 8 9 9 9 9 8 8 8 7 7 7 6 6 6 6 7 7 7 7 6 5 4 2 2 3 5 6 7 6 4
26 20 17 16 14 12 11 10 10 9 8 8 10 11 11 11 11 10 9 9 9 8 8 7 6 5 5 6 6 6 6 6 6 6 5 3 3 4 3 5 7 5 3
27 21 18 17 14 13 11 10 10 9 9 7 9 11 11 10 9 8 5 5 7 8 8 6 8 8 6 6 6 7 7 7 6 6 6 3 4 5 4 4 6 4 3
29 24 19 15 15 13 12 11 9 7 6 6 5 6 6 6 5 5 5 5 5 6 6 7 7 7 6 6 6 7 7 7 8 7 6 4 6 4 4 6 6 5 3
27 22 18 16 16 14 12 10 7 6 5 5 4 5 5 6 6 6 6 6 6 6 7 7 8 8 8 7 7 8 8 7 7 7 6 5 7 7 7 7 6 7 7
27 23 21 17 15 13 11 9 7 5 5 5 4 5 5 7 7 8 7 8 8 9 10 10 10 10 10 9 9 9 9 9 9 8 8 8 7 6 9 10 8 8 7
28 24 20 16 14 12 10 8 6 5 5 5 5 7 8 10 11 12 12 12 12 12 13 13 13 13 13 12 10 9 9 9 10 9 9 9 9 9 8 12 9 9 8
28 23 20 17 13 10 9 7 6 6 7 7 9 10 11 12 13 14 14 13 13 13 13 13 14 13 13 13 12 11 10 9 9 10 9 10 10 10 11 9 8 9 9
25 23 19 16 13 10 8 8 9 11 12 13 11 9 11 13 13 14 14 13 13 13 12 12 13 12 12 11 11 12 11 10 12 9 7 7 6 8 6 4 6 8 7
22 20 17 14 12 11 11 12 13 13 12 10 10 8 9 11 11 11 13 13 12 12 13 12 12 12 12 11 11 11 11 12 12 9 12 13 10 7 6 5 6 8 9
19 18 17 15 13 13 13 13 12 10 10 9 8 8 8 9 9 10 11 11 12 11 11 11 11 11 10 11 11 11 10 13 12 11 12 12 12 12 11 10 9 10 9
19 17 15 14 13 13 14 12 10 9 8 7 7 7 7 8 7 8 9 10 11 11 11 10 11 10 9 11 11 11 10 12 12 11 13 13 13 12 12 11 10 10 9
20 18 15 14 12 11 12 12 10 7 6 7 6 6 6 7 6 8 9 11 12 13 12 12 12 11 10 11 10 11 10 11 9 11 12 11 14 13 13 14 15 13 11
20 18 15 13 13 12 11 10 9 6 6 7 6 6 6 7 7 9 10 11 13 14 12 13 13 11 9 9 10 10 10 9 7 10 12 13 14 14 12 13 13 13 14
20 17 15 13 13 13 11 10 9 6 6 6 7 6 7 7 8 9 10 11 12 12 13 12 13 11 12 10 11 10 9 8 8 11 13 13 13 12 10 10 11 12 12
20 18 15 14 13 12 11 10 8 6 6 6 7 6 8 7 8 9 9 11 11 12 12 12 12 12 12 10 12 11 9 7 9 9 9 10 11 13 13 11 11 11 11
20 18 16 15 13 12 11 9 7 6 6 5 5 6 6 6 7 8 9 10 11 11 11 11 11 11 12 7 10 11 11 9 8 9 9 9 10 10 11 12 13 13 12
20 19 17 15 14 12 11 10 10 7 5 4 3 4 4 6 7 7 7 9 9 9 11 12 13 12 13 10 9 8 8 7 7 7 6 6 7 8 9 10 11 11 12
22 20 18 16 14 12 11 9 8 6 5 3 2 2 3 4 6 6 6 7 8 8 9 11 11 11 13 12 5 4 4 5 3 4 5 7 8 9 11 11 11 8 10
23 20 18 16 14 12 10 9 8 8 6 3 2 0 3 4 5 5 5 5 6 7 8 10 10 10 11 15 7 1 4 2 2 2 2 1 2 4 8 11 12 9 9
23 21 19 18 16 14 13 10 7 6 7 5 3 2 4 4 5 6 5 6 6 7 8 9 10 11 9 14 8 5 1 3 2 2 3 4 2 1 6 9 12 12 11
24 22 20 18 16 15 12 9 5 7 7 4 3 4 5 5 5 6 7 7 7 7 7 7 8 8 6 9 6 3 3 2 6 5 6 4 5 3 5 7 10 12 11
24 24 21 19 17 16 13 10 7 6 4 4 4 4 4 5 6 7 8 8 8 9 8 7 6 5 5 4 5 1 2 2 4 1 5 3 6 6 6 6 6 9 10
26 22 21 19 17 16 13 11 9 7 5 4 2 3 4 6 7 8 9 10 10 11 11 9 7 6 6 5 4 3 4 4 1 3 2 5 4 8 8 9 8 7 8
24 23 22 18 17 16 14 11 10 8 6 4 4 5 7 8 10 11 13 14 14 13 13 12 10 9 8 8 6 4 4 5 7 4 3 5 5 7 9 12 10 7 7
22 22 21 19 17 17 15 12 11 9 7 5 6 7 8 9 9 11 13 14 17 17 16 13 12 11 10 10 10 10 10 6 4 4 3 5 6 10 8 9 13 10 6
Wind_Direction
157 152 152 145 141 137 129 121 113 104 93 83 73 69 68 64 67 68 64 59 52 47 50 43 48 40 36 29 27 25 25 24 22 18 13 10 25 29 20 11 359 5 32
154 153 154 147 145 138 132 123 114 101 96 87 80 80 78 71 68 64 60 57 49 45 41 26 11 15 3 356 356 360 3 4 7 12 5 2 340 320 320 344 343 340 357
147 149 152 152 146 138 130 120 121 116 106 91 78 72 67 63 58 53 50 44 39 36 28 21 20 27 9 342 335 334 335 338 344 350 347 344 350 319 252 296 327 330 331
146 151 152 149 140 135 138 134 127 116 104 94 80 70 60 54 49 43 32 22 14 7 1 356 353 347 341 336 345 346 321 312 317 327 333 321 334 290 248 274 309 315 296
143 146 144 142 139 141 140 133 126 116 105 96 84 78 67 57 45 26 17 5 357 350 343 340 335 332 328 326 324 317 318 330 314 308 310 293 316 302 247 291 298 304 287
143 146 149 150 144 143 138 130 123 112 102 91 78 67 58 53 46 37 29 22 16 14 12 5 357 351 338 325 318 317 312 319 309 303 301 305 303 312 243 274 286 305 290
145 148 151 150 149 148 142 135 125 110 93 80 70 69 67 66 60 46 42 39 37 33 28 25 19 17 13 9 357 343 330 316 307 305 301 296 295 302 281 246 271 293 291
148 149 150 153 151 149 143 135 120 101 88 86 84 80 73 67 61 50 48 48 44 38 31 30 22 19 19 17 14 19 10 351 328 304 302 296 289 292 304 257 272 288 292
149 152 150 151 151 148 134 123 111 102 95 93 87 76 65 57 59 50 47 46 39 31 24 25 17 20 17 16 22 22 24 22 16 22 6 334 286 309 322 297 294 313 312
145 147 147 145 144 138 126 114 110 110 106 94 86 79 68 55 53 50 43 43 38 33 30 28 20 18 20 18 18 18 21 17 27 43 42 43 54 39 36 27 4 6 359
141 146 148 142 134 130 123 118 115 109 102 101 94 84 85 67 57 52 45 40 34 33 29 28 25 20 21 26 23 24 22 25 46 51 47 42 44 38 31 23 25 16 10
147 154 159 150 141 135 129 125 122 113 97 95 100 96 90 74 66 58 49 39 34 31 32 28 25 28 29 30 31 29 31 36 48 53 52 46 42 38 35 30 28 26 23
153 152 156 155 149 153 145 134 125 119 101 93 101 93 92 80 74 59 45 37 34 32 30 28 28 34 31 30 27 27 33 30 52 64 61 53 45 37 34 37 40 39 34
163 163 163 161 161 155 147 143 138 134 108 98 101 94 87 81 71 55 44 36 36 35 34 31 31 33 34 34 32 38 37 50 71 66 59 49 42 38 31 30 30 31 32
167 167 165 161 163 160 159 147 136 131 108 108 99 88 76 69 61 52 44 38 39 36 30 26 30 31 31 39 38 46 42 56 81 69 55 37 21 10 28 38 36 36 32
170 167 164 165 168 165 160 152 134 134 123 116 97 83 69 56 52 48 42 41 40 33 26 22 25 28 29 49 48 52 61 88 93 62 44 35 29 35 49 44 34 31 28
175 170 168 168 168 169 163 155 145 151 140 116 101 81 65 51 45 44 38 39 36 28 20 23 31 33 36 66 56 72 78 94 79 68 52 32 30 32 50 52 44 40 35
175 176 171 173 169 171 163 158 150 161 135 121 117 75 55 43 35 33 31 32 29 18 17 20 20 29 31 41 48 89 94 85 84 69 50 32 28 29 26 26 30 34 34
184 179 178 178 173 172 165 165 155 165 151 149 141 89 25 23 19 17 16 19 16 7 10 15 18 17 19 19 43 89 118 108 54 41 37 34 39 33 30 22 9 9 23
185 185 184 180 178 174 169 169 168 169 166 179 199 260 340 343 349 351 354 355 358 354 359 7 6 15 15 2 13 101 198 164 103 86 71 101 59 29 14 10 13 14 4
185 186 187 183 180 182 179 176 181 176 177 196 209 250 311 310 319 324 329 333 335 338 351 351 356 7 4 4 18 43 71 217 208 210 204 217 220 329 354 2 8 9 7
186 193 192 190 188 192 201 197 192 182 193 204 213 258 291 296 309 313 314 315 313 320 322 326 348 354 345 7 18 10 357 285 243 262 216 218 225 247 318 342 353 5 9
195 196 196 194 193 199 205 203 189 185 190 217 237 253 278 295 302 311 309 306 304 298 293 298 314 324 335 348 357 353 6 278 327 262 238 221 249 253 288 307 332 351 2
203 200 202 200 199 204 209 208 214 207 195 203 220 276 288 298 300 302 300 303 304 292 286 285 286 290 300 301 324 252 289 273 232 325 262 257 249 254 268 284 304 325 347
204 201 206 205 205 206 212 216 214 207 211 216 243 269 280 285 292 293 293 287 286 293 294 286 281 284 288 287 286 293 295 277 255 234 284 303 280 283 278 265 267 281 316
210 210 210 208 207 207 211 217 218 216 215 233 262 277 284 295 304 308 304 294 279 280 285 293 286 278 280 273 271 264 255 245 234 225 247 271 268 301 297 268 253 259 280
Height
821 822 825 826 828 829 830 831 831 832 833 833 833 832 832 831 831 830 830 829 829 828 828 827 827 826 825 825 824 823 823 822 821 821 820 820 820 820 819 819 818 817 816
816 821 825 827 828 829 831 831 832 833 833 833 833 833 832 832 832 831 830 830 830 829 828 827 826 826 825 824 824 823 822 821 821 821 820 820 819 819 819 819 818 817 816
817 821 825 827 828 830 831 832 833 833 833 833 833 833 833 832 832 831 830 829 829 828 827 826 826 825 824 823 823 822 821 821 820 820 820 819 819 818 818 818 817 817 817
816 821 825 827 829 830 832 833 833 834 833 834 834 833 833 832 831 831 830 829 828 827 827 826 825 824 822 822 821 821 820 820 819 818 818 818 818 817 817 817 817 816 816
817 822 825 828 830 831 832 833 834 834 834 834 834 833 833 832 831 831 830 829 828 827 825 824 823 823 821 821 820 820 819 818 817 817 816 816 816 816 816 816 816 816 815
817 821 825 828 830 831 832 833 834 835 834 834 834 833 833 832 831 830 829 828 827 826 825 824 823 821 820 819 819 818 817 817 816 815 815 815 815 815 815 815 815 815 814
818 821 825 828 831 832 832 833 834 834 834 834 834 834 833 832 831 831 829 829 827 827 826 824 823 821 820 819 817 817 816 815 814 814 813 813 813 813 813 813 813 813 812
817 822 825 828 830 832 832 833 834 834 834 834 834 835 835 834 833 832 831 830 828 828 827 825 825 823 821 820 818 817 815 813 812 811 811 811 811 811 811 811 812 811 811
819 823 826 828 830 832 833 834 834 834 835 835 835 835 835 835 833 832 831 830 829 828 827 825 825 823 821 820 818 817 815 813 812 810 810 809 809 809 810 810 810 810 809
822 824 827 829 830 832 833 835 835 835 836 836 836 836 836 835 834 833 832 830 830 828 827 826 824 822 821 820 818 817 815 813 812 811 810 810 809 809 809 809 809 808 807
824 826 828 830 832 833 833 835 836 837 837 837 836 836 837 835 835 833 832 831 829 828 827 825 824 822 821 820 818 817 816 814 813 812 811 811 811 811 810 809 809 808 807
824 827 829 831 833 834 834 835 836 837 837 837 837 837 836 835 835 834 832 831 830 829 827 826 824 823 822 820 819 817 816 814 814 813 812 813 813 812 811 810 809 808 807
824 827 829 831 832 834 834 834 835 836 837 836 837 836 836 835 835 834 832 831 830 829 827 826 825 823 822 821 820 818 817 815 815 814 813 813 813 813 812 811 808 808 807
824 827 829 831 833 834 835 835 834 836 836 836 837 837 835 835 835 833 832 831 830 829 829 827 826 824 823 822 820 819 817 816 816 815 815 815 814 813 813 811 810 810 808
824 827 829 830 833 833 834 834 834 835 835 836 835 836 835 836 834 834 833 832 830 830 829 828 826 825 822 822 820 818 818 818 818 816 816 816 815 814 814 813 812 811 810
825 826 829 831 833 834 834 835 834 836 836 836 835 836 835 836 835 834 834 833 831 831 831 829 826 824 823 822 820 818 818 819 818 818 817 817 816 815 815 814 813 812 811
825 826 828 831 833 835 835 834 834 837 837 836 836 836 836 837 836 835 835 833 832 832 832 830 827 825 824 822 820 819 820 820 819 819 819 818 817 817 817 816 815 814 812
824 826 828 830 832 834 835 836 835 838 837 836 837 837 837 837 837 836 836 834 833 833 832 830 827 826 824 822 821 820 821 821 821 820 819 819 818 818 817 816 815 815 813
823 825 827 830 832 834 834 836 835 837 837 837 838 838 838 837 837 836 836 835 834 834 832 830 828 826 824 823 821 820 821 821 821 821 820 820 819 819 818 817 815 814 813
821 824 827 829 831 833 834 835 836 835 836 838 838 838 839 838 838 837 836 836 835 834 833 831 830 827 825 824 821 819 821 822 822 822 821 819 819 818 818 817 815 814 812
820 822 825 827 828 831 833 834 835 834 835 837 837 838 838 838 838 838 837 836 835 835 833 832 830 827 826 825 821 820 821 822 822 821 821 820 819 819 819 818 816 814 812
817 820 824 825 826 830 832 832 833 833 834 835 835 836 837 837 837 837 836 836 835 834 833 833 830 829 828 826 824 824 824 823 822 821 821 820 819 818 818 817 816 815 813
816 819 821 823 824 828 830 831 831 832 832 833 834 834 836 836 836 836 835 834 833 832 832 831 829 828 827 825 825 826 827 827 823 820 820 821 820 819 818 817 816 815 813
815 817 821 822 823 827 829 830 830 830 831 832 832 833 834 834 834 834 833 832 831 831 830 829 828 827 826 826 826 826 826 826 825 823 818 817 818 817 817 816 815 814 814
814 815 819 820 822 825 828 829 830 831 831 831 832 832 832 833 832 831 830 830 830 830 829 828 827 826 826 826 827 826 825 824 824 826 824 819 816 816 815 815 814 813 812
812 814 817 818 820 823 826 828 828 829 830 831 831 830 831 830 830 829 828 828 827 827 826 825 824 824 824 824 824 823 823 822 821 821 823 819 817 813 812 812 812 812 811